SCP
0 0 0 0 0 0 0 0 0 0 0 0 0 0 0 0 0 0 0 0 0 0 0 0 0 0 0 0 0 0 0 0 0 0 0 0 0 0 0 0 0 0 0
0 0 0 0 0 0 0 0 0 0 0 0 0 0 0 0 0 0 0 0 0 0 0 0 0 0 0 0 0 0 0 0 0 0 0 0 0 0 0 0 0 0 0
0 0 0 0 0 0 0 0 0 0 0 0 0 0 0 0 0 0 0 0 0 0 0 0 0 0 0 0 0 0 0 0 0 0 0 0 0 0 0 0 0 0 0
0 0 0 0 0 0 0 0 0 0 0 0 0 0 0 0 0 0 0 0 0 0 0 0 0 0 0 0 0 0 0 0 0 0 0 0 0 0 0 0 0 0 0
0 0 0 0 0 0 0 0 0 0 0 0 0 0 0 0 0 0 0 0 0 0 0 0 0 0 0 0 0 0 0 0 0 0 0 0 0 0 0 0 0 0 0
0 0 0 0 0 0 0 0 0 0 0 0 0 0 0 0 0 0 0 0 0 0 0 0 0 0 0 0 0 0 0 0 0 0 0 0 0 0 0 0 0 0 0
0 0 0 0 0 0 0 0 0 0 0 0 0 0 0 0 0 0 0 0 0 0 0 0 0 0 0 0 0 0 0 0 0 0 0 0 0 0 0 0 0 0 0
0 0 0 0 0 0 0 0 0 0 0 0 0 0 0 0 0 0 0 0 0 0 0 0 0 0 0 0 0 0 0 0 0 0 0 0 0 0 0 0 0 0 0
0 0 0 0 0 0 0 0 0 0 0 0 0 0 0 0 0 0 0 0 0 0 0 0 0 0 0 0 0 0 0 0 0 0 0 0 0 0 0 0 0 0 0
0 0 0 0 0 0 0 0 0 0 0 0 0 0 0 0 0 0 0 0 0 0 0 0 0 0 0 0 0 0 0 0 0 0 0 0 0 0 0 0 0 0 0
0 0 0 0 0 0 0 0 0 0 0 0 0 0 0 0 0 0 0 0 0 0 0 0 0 0 0 0 0 0 0 0 0 0 0 0 0 0 0 0 0 0 0
0 0 0 0 0 0 0 0 0 0 0 0 0 0 0 0 0 0 0 0 0 0 0 0 0 0 0 0 0 0 0 0 0 0 0 0 0 0 0 0 0 0 0
0 0 0 0 0 0 0 0 0 0 0 0 0 0 0 0 0 0 0 0 0 0 0 0 0 0 0 0 0 0 0 0 0 0 0 0 0 0 0 0 0 0 0
0 0 0 0 0 0 0 0 0 0 0 0 0 0 0 0 0 0 0 0 0 0 0 0 0 0 0 0 0 0 0 0 0 0 0 0 0 0 0 0 0 0 0
0 0 0 0 0 0 0 0 0 0 0 0 0 0 0 0 0 0 0 0 0 0 0 0 0 0 0 0 0 0 0 0 0 0 0 0 0 0 0 0 0 0 0
0 0 0 0 0 0 0 0 0 0 0 0 0 0 0 0 0 0 0 0 0 0 0 0 0 0 0 0 0 0 0 0 0 0 0 0 0 0 0 0 0 0 0
0 0 0 0 0 0 0 0 0 0 0 0 0 0 0 0 0 0 0 0 0 0 0 0 0 0 0 0 0 0 0 0 0 0 0 0 0 0 0 0 0 0 0
0 0 0 0 0 0 0 0 0 0 0 0 0 0 0 0 0 0 0 0 0 0 0 0 0 0 0 0 0 0 0 0 0 0 0 0 0 0 0 0 0 0 0
0 0 0 0 0 0 0 0 0 0 0 0 0 0 0 0 0 0 0 0 0 0 0 0 0 0 0 0 0 0 0 0 0 0 0 0 0 0 0 0 0 0 0
0 0 0 0 0 0 0 0 0 0 0 0 0 0 0 0 0 0 0 0 0 0 0 0 0 0 0 0 0 0 0 0 0 0 0 0 0 0 0 0 0 0 0
0 0 0 0 0 0 0 0 0 0 0 0 0 0 0 0 0 0 0 0 0 0 0 0 0 0 0 0 0 0 0 0 0 0 0 0 0 0 0 0 0 0 0
0 0 0 0 0 0 0 0 0 0 0 0 0 0 0 0 0 -0 -0 -0 0 0 0 0 0 0 0 0 0 0 0 0 0 0 0 0 0 0 0 0 0 0 0
0 0 0 0 0 0 0 0 0 0 0 0 0 0 0 0 0 0 0 0 0 0 0 0 0 0 0 0 0 0 0 0 0 0 0 0 0 0 0 0 0 0 0
0 0 0 0 0 0 0 0 0 0 0 0 0 0 0 0 0 0 0 0 0 0 0 0 0 0 0 0 0 0 0 0 0 0 0 0 0 0 0 0 0 0 0
0 0 0 0 0 0 0 0 0 0 0 0 0 0 0 0 0 0 0 0 0 0 0 0 0 0 0 0 0 0 0 0 0 0 0 0 0 0 0 0 0 0 0
0 0 0 0 0 0 0 0 0 0 0 0 0 0 0 0 0 0 0 0 0 0 0 0 0 0 0 0 0 0 0 0 0 0 0 0 0 0 0 0 0 0 0
Wind_Speed
8 8 8 8 8 9 9 9 8 7 9 10 10 11 12 12 12 12 12 12 14 12 10 11 11 9 8 6 5 5 4 5 5 3 2 4 6 6 5 4 5 5 5
8 8 8 8 8 9 10 9 8 8 9 9 9 10 11 11 11 13 14 13 15 15 14 13 13 10 10 8 7 6 5 5 6 6 3 4 5 6 5 5 4 4 4
7 8 8 9 10 11 11 9 8 8 8 8 9 11 11 11 11 13 13 13 14 15 15 15 15 14 13 9 9 8 6 4 5 6 4 3 3 3 3 3 4 4 5
8 8 10 11 11 10 9 8 8 8 9 9 9 9 9 9 10 11 11 11 12 12 12 13 14 15 15 14 11 10 8 7 6 6 4 3 3 3 3 3 3 4 4
8 9 11 10 8 8 8 8 7 8 8 8 8 8 8 8 9 10 11 11 11 11 10 11 12 14 15 14 11 12 11 8 7 5 4 3 3 4 4 4 4 3 4
8 9 9 7 7 7 7 7 7 7 7 7 8 8 8 8 12 17 13 10 10 11 11 9 9 11 16 19 19 18 16 12 9 7 5 5 5 5 4 4 4 3 3
7 7 6 6 6 6 6 6 7 7 6 7 7 7 8 10 15 16 17 10 9 10 10 10 9 9 12 11 15 17 14 14 14 9 7 7 6 6 6 6 5 5 5
5 5 5 5 5 5 5 6 6 5 6 6 6 6 6 8 14 14 14 9 7 8 10 11 12 12 12 14 12 11 9 8 10 7 6 6 5 5 5 5 5 4 4
4 4 4 4 5 4 5 5 4 4 4 4 4 6 6 6 12 13 12 6 6 7 8 9 12 13 19 21 14 12 10 7 10 12 11 10 11 11 8 4 3 3 5
4 3 3 3 4 4 4 3 3 3 3 4 3 4 5 5 9 12 13 5 6 6 6 8 11 15 20 22 13 11 10 8 7 7 9 10 9 9 12 7 6 5 4
2 1 0 1 2 2 2 2 3 3 4 3 3 2 3 4 7 11 12 5 6 7 6 6 8 18 21 22 16 10 11 9 8 7 6 5 5 5 6 6 6 5 5
2 3 3 3 3 3 4 4 4 5 4 3 3 1 0 1 3 6 10 10 10 7 6 6 8 18 19 20 15 13 15 10 5 6 6 6 6 6 5 6 6 4 4
4 4 4 5 4 4 4 4 4 4 3 3 2 2 1 0 1 4 6 9 13 7 5 10 12 16 17 14 16 15 10 6 6 6 6 6 5 5 4 4 3 3 2
4 4 4 5 5 4 4 3 3 3 3 2 2 2 1 1 0 0 1 3 6 7 5 7 12 13 11 8 6 7 5 5 5 5 4 3 3 4 4 4 3 3 2
4 4 4 5 5 4 4 4 4 3 3 3 2 2 2 1 1 3 2 2 3 4 4 3 3 3 4 3 3 3 3 4 4 3 4 3 4 4 3 3 3 3 3
4 4 4 4 4 4 4 5 10 8 9 8 6 4 2 2 1 1 3 4 6 8 4 3 3 3 4 4 4 3 3 3 3 3 3 4 4 4 4 3 3 3 3
4 4 3 4 4 4 4 4 5 7 12 12 11 9 6 4 4 2 3 4 5 5 2 2 2 2 3 3 3 3 3 2 2 3 3 3 4 4 4 4 3 3 3
5 5 4 4 4 4 4 4 3 4 4 4 8 12 10 8 7 5 4 4 2 2 1 1 1 1 2 2 2 2 2 2 2 3 3 3 3 3 3 4 4 4 3
5 4 4 5 4 4 4 4 4 5 5 4 4 6 9 9 11 11 8 4 3 2 2 2 2 1 1 1 2 2 3 3 3 3 3 3 3 3 3 3 3 4 3
5 7 6 5 5 5 5 5 5 5 5 5 5 4 4 5 4 5 5 4 4 3 3 2 2 2 2 1 1 2 2 2 3 2 3 3 3 3 3 4 4 3 3
5 6 8 7 6 5 5 5 5 5 5 5 4 5 8 4 4 4 4 4 3 3 2 2 2 2 1 1 1 1 2 2 2 3 3 3 3 3 3 3 3 3 3
6 6 6 6 5 6 6 5 5 5 5 5 4 5 9 5 4 3 3 3 3 2 2 2 1 1 1 1 1 1 2 2 2 3 3 3 3 3 3 3 3 3 3
6 7 7 6 6 7 6 5 5 5 4 4 3 3 3 3 3 3 2 2 2 2 2 1 1 1 1 0 0 1 2 3 3 4 4 4 3 3 3 4 4 4 4
7 7 7 6 5 5 5 5 4 4 4 3 3 2 2 2 2 2 1 1 1 1 1 1 1 2 2 2 1 1 2 2 2 3 5 5 5 4 4 4 4 5 4
7 6 6 5 5 5 4 4 4 3 3 2 2 1 1 1 1 1 2 1 2 2 3 3 2 3 4 5 4 3 5 5 4 3 4 4 5 5 5 5 4 4 4
6 6 5 4 4 4 3 3 2 2 2 1 1 1 1 1 2 2 2 2 3 3 4 3 4 5 6 5 6 7 8 8 8 7 5 4 5 5 5 4 5 5 5
Wind_Direction
205 206 210 215 217 218 223 223 214 202 192 190 192 198 204 206 203 205 206 201 206 207 201 198 198 183 183 183 173 166 156 138 138 149 132 143 158 171 185 194 211 224 241
205 208 214 215 217 221 226 222 211 207 198 193 190 197 204 206 204 205 207 205 205 205 203 198 195 186 184 180 176 173 161 144 135 142 140 145 166 176 185 201 214 221 226
204 209 216 218 219 224 225 220 211 205 200 193 190 199 204 205 205 209 210 209 209 208 204 199 193 184 185 179 174 169 153 135 122 135 142 141 145 163 181 212 225 231 235
203 210 221 225 223 224 221 215 210 203 200 195 194 200 203 204 208 210 211 211 211 210 205 200 192 189 185 176 171 164 149 138 128 130 131 141 151 158 167 210 238 233 241
205 216 228 231 226 222 218 214 208 204 201 190 189 197 199 203 210 209 210 211 209 208 203 199 193 187 181 176 170 164 155 148 143 138 146 146 167 174 195 195 224 240 248
212 223 231 230 224 222 218 209 205 203 195 185 189 192 200 210 217 216 211 210 207 203 198 191 181 174 176 178 176 170 164 157 158 157 162 178 194 196 191 198 211 225 258
225 231 232 230 229 224 214 206 205 200 190 190 191 191 202 217 222 222 216 205 203 199 191 178 172 168 163 162 167 167 168 170 165 159 173 191 192 195 193 207 213 220 234
244 246 243 235 235 226 212 210 205 191 188 189 190 192 200 218 226 226 216 203 197 191 184 175 167 163 165 159 157 161 165 173 172 173 184 192 193 190 192 201 209 231 255
259 254 243 229 227 219 215 210 196 185 183 183 180 187 199 216 224 225 209 189 187 181 173 167 165 166 174 170 166 167 171 186 194 197 202 211 217 219 209 189 195 221 256
277 265 246 216 208 209 206 194 176 169 171 162 168 181 194 209 222 222 206 179 176 165 160 163 172 173 180 180 175 173 181 185 183 198 211 223 225 228 226 214 204 218 235
308 328 13 153 173 173 155 140 134 129 129 134 145 162 193 206 226 224 208 178 172 166 170 174 186 189 190 191 186 185 192 180 183 190 198 202 204 207 211 209 206 211 222
49 65 63 68 80 98 108 105 110 117 118 118 118 113 128 207 222 230 218 196 176 170 178 179 190 197 198 199 197 195 196 188 179 188 199 205 206 207 202 196 196 201 210
81 81 77 75 73 85 101 105 102 106 114 120 127 133 121 78 257 238 226 205 187 173 177 185 191 200 204 205 207 203 197 193 194 202 209 211 202 187 168 164 166 165 172
102 98 93 91 84 77 80 89 98 103 112 120 124 125 122 126 191 210 203 197 190 183 178 189 197 203 202 194 197 204 198 196 200 208 205 190 164 159 163 161 167 164 178
109 106 101 97 99 89 79 77 86 75 95 111 112 118 125 131 224 203 169 163 159 159 150 151 166 171 183 181 180 183 183 185 198 200 189 179 170 165 165 153 150 154 179
115 107 103 102 97 96 95 82 74 79 77 76 79 85 79 75 60 159 179 175 170 163 152 152 163 173 180 181 180 179 179 186 188 185 182 177 173 171 168 158 157 172 194
111 106 104 105 106 105 103 102 96 75 69 63 60 61 62 63 65 91 147 154 155 156 154 151 160 169 175 175 178 181 184 177 167 169 172 168 163 164 165 168 171 175 192
95 91 95 94 93 91 91 91 95 98 85 55 43 47 51 59 61 65 96 115 108 105 99 128 139 145 155 162 167 167 159 151 152 158 157 156 158 162 169 176 177 178 186
82 85 84 83 78 78 77 77 77 79 80 70 45 29 29 46 52 49 55 61 76 72 62 67 75 93 112 133 144 150 153 157 157 157 160 161 161 163 173 177 175 175 174
74 76 81 84 81 76 73 76 77 78 76 69 52 24 10 33 44 35 38 44 57 61 58 60 56 62 75 93 114 129 137 146 155 161 165 163 163 168 175 176 176 177 189
83 76 75 79 77 76 76 75 76 77 76 71 49 35 55 60 60 54 49 45 47 50 53 63 68 66 62 71 99 136 155 165 168 169 166 165 164 169 174 176 180 181 182
82 80 75 78 78 76 75 73 75 77 76 72 51 34 48 54 53 55 52 46 38 33 31 49 64 70 97 130 150 161 172 176 176 174 176 172 172 174 175 177 180 180 182
81 84 82 77 77 79 75 69 71 72 71 65 57 48 44 45 44 47 45 33 26 18 13 26 41 13 -0 330 210 184 191 200 194 183 180 179 180 183 183 189 190 189 197
75 80 82 78 75 74 76 73 69 70 69 66 57 51 46 42 32 20 2 342 337 319 309 302 271 256 255 255 257 244 225 214 187 185 184 184 186 188 187 192 195 198 203
72 75 76 75 74 75 75 74 70 67 64 60 51 39 24 4 334 308 293 282 283 280 278 272 262 257 254 251 247 244 247 243 214 187 182 186 191 191 191 194 194 197 200
71 73 73 71 70 68 71 71 65 56 49 32 4 323 295 283 277 274 274 270 270 270 270 265 259 257 256 252 250 248 242 239 224 205 187 189 195 199 193 197 198 198 200